Weather History for KPBI - January, 2015

Change the Weather History Date:

Thursday, January 1, 2015

  Actual Average Record
Temperature  
Mean Temperature 75 °F 66 °F  
Max Temperature 77 °F 75 °F 85 °F (1996)
Min Temperature 72 °F 57 °F 35 °F (1918)
Degree Days  
Heating Degree Days 0 3  
Month to date heating degree days 0 3  
Since 1 July heating degree days 42 74  
Cooling Degree Days 10 4  
Month to date cooling degree days 10 4  
Year to date cooling degree days 10 4  
Growing Degree Days 24 (Base 50)    
Moisture  
Dew Point 70 °F    
Average Humidity 84    
Maximum Humidity 93    
Minimum Humidity 74    
Precipitation  
Precipitation 0.23 in 0.11 in 1.64 in (1909)
Month to date precipitation 0.23 0.11  
Year to date precipitation 0.23 0.11  
Snow  
Snow 0.00 in - - ()
Month to date snowfall 0.0  
Since 1 July snowfall 0.0  
Snow Depth 0.00 in    
Sea Level Pressure  
Sea Level Pressure 30.16 in    
Wind  
Wind Speed 5 mph (SE)    
Max Wind Speed 16 mph    
Max Gust Speed 18 mph    
Visibility 9 miles    
Events Rain    
T = Trace of Precipitation, MM = Missing Value Source: NWS Daily Summary

Daily Weather History Graph

Daily Weather History Graph

Search for Another Location

Airport or City:

Trip Planner

Search our weather history database for the weather conditions in past years. The results will help you decide how hot, cold, wet, or windy it might be!

Date:

Astronomy

Jan. 01, 2015 Rise Set
Actual Time 7:08 AM EST 5:38 PM EST
Civil Twilight 6:43 AM EST 6:04 PM EST
Nautical Twilight 6:14 AM EST 6:33 PM EST
Astronomical Twilight 5:46 AM EST 7:01 PM EST
Moon 3:02 PM EST (1/1) 3:45 AM EST (1/1)
Length of Visible Light 11h 20m
Length of Day
10h 30m
Waxing Gibbous, 88% of the Moon is Illuminated
Jan 1
Waxing Gibbous
Jan 4
Full
Jan 13
Last Quarter
Jan 20
New
Jan 26
First Quarter

Hourly Weather History & Observations

Time (EST) Temp. Dew Point Humidity Pressure Visibility Wind Dir Wind Speed Gust Speed Precip Events Conditions
12:53 AM 75.0 °F 69.1 °F 82% 30.14 in 10.0 mi ENE 9.2 mph - N/A   Overcast
1:53 AM 73.9 °F 70.0 °F 87% 30.14 in 10.0 mi ENE 8.1 mph - N/A   Overcast
2:53 AM 73.9 °F 70.0 °F 87% 30.13 in 10.0 mi NE 4.6 mph - N/A   Overcast
3:53 AM 73.9 °F 70.0 °F 87% 30.13 in 10.0 mi South 4.6 mph - 0.00 in Rain Light Rain
4:44 AM 73.0 °F 70.0 °F 90% 30.14 in 7.0 mi Calm Calm - 0.04 in Rain Light Rain
4:53 AM 72.0 °F 70.0 °F 93% 30.14 in 7.0 mi Calm Calm - 0.04 in Rain Light Rain
5:53 AM 72.0 °F 70.0 °F 93% 30.15 in 7.0 mi Calm Calm - 0.00 in   Overcast
6:53 AM 72.0 °F 70.0 °F 93% 30.16 in 10.0 mi SE 5.8 mph - N/A   Overcast
7:43 AM 72.0 °F 70.0 °F 93% 30.19 in 10.0 mi Calm Calm - N/A   Mostly Cloudy
7:53 AM 73.0 °F 70.0 °F 90% 30.19 in 10.0 mi Calm Calm - N/A   Mostly Cloudy
8:53 AM 73.9 °F 71.1 °F 91% 30.20 in 10.0 mi South 4.6 mph - N/A   Mostly Cloudy
9:53 AM 75.0 °F 70.0 °F 84% 30.21 in 10.0 mi SSE 8.1 mph - N/A   Overcast
10:53 AM 75.9 °F 70.0 °F 82% 30.21 in 10.0 mi Variable 3.5 mph - N/A   Overcast
11:53 AM 77.0 °F 70.0 °F 79% 30.18 in 10.0 mi SE 11.5 mph - N/A   Mostly Cloudy
12:53 PM 77.0 °F 68.0 °F 74% 30.15 in 10.0 mi SSE 9.2 mph - N/A   Overcast
1:53 PM 73.0 °F 70.0 °F 90% 30.14 in 3.0 mi SSE 8.1 mph - 0.02 in Rain Rain
2:01 PM 72.0 °F 70.0 °F 93% 30.14 in 1.5 mi South 6.9 mph - 0.00 in Rain Heavy Rain
2:13 PM 72.0 °F 68.0 °F 87% 30.14 in 3.0 mi SSW 6.9 mph - 0.01 in Rain Light Rain
2:53 PM 73.9 °F 70.0 °F 87% 30.13 in 10.0 mi ESE 5.8 mph - 0.01 in   Overcast
3:53 PM 73.9 °F 70.0 °F 87% 30.13 in 10.0 mi East 9.2 mph - 0.00 in   Overcast
4:53 PM 73.9 °F 70.0 °F 87% 30.13 in 10.0 mi SE 5.8 mph - N/A   Overcast
5:53 PM 73.9 °F 70.0 °F 87% 30.14 in 10.0 mi SSE 5.8 mph - N/A   Mostly Cloudy
6:53 PM 73.0 °F 70.0 °F 90% 30.16 in 10.0 mi WSW 4.6 mph - N/A   Mostly Cloudy
7:53 PM 73.0 °F 69.1 °F 87% 30.17 in 10.0 mi Calm Calm - N/A   Scattered Clouds
8:11 PM 73.0 °F 69.1 °F 87% 30.17 in 10.0 mi Calm Calm - 0.00 in Rain Light Rain
8:39 PM 73.0 °F 70.0 °F 90% 30.18 in 5.0 mi SSE 8.1 mph - 0.03 in Rain Light Rain
8:53 PM 73.0 °F 70.0 °F 90% 30.18 in 5.0 mi Calm Calm - 0.08 in Rain Light Rain
9:32 PM 73.9 °F 71.1 °F 91% 30.18 in 5.0 mi SE 11.5 mph - 0.04 in Rain Rain
9:53 PM 75.0 °F 71.1 °F 87% 30.18 in 10.0 mi East 4.6 mph - 0.04 in   Overcast
10:53 PM 73.0 °F 71.1 °F 93% 30.19 in 10.0 mi West 3.5 mph - 0.02 in   Overcast
11:42 PM 73.9 °F 71.1 °F 91% 30.19 in 10.0 mi SSE 5.8 mph - 0.02 in   Mostly Cloudy
11:53 PM 73.9 °F 71.1 °F 91% 30.18 in 10.0 mi SE 5.8 mph - 0.02 in   Mostly Cloudy